Погода в Татуине

Тунис     32°55′40″N   10°27′02″E
темп.,
°C
ветер,
м/с
пор.,
м/с
влажн.,
%
обл.,
%
осадки,
мм/ч
давл.,
гПа
погр.,
м
25 июля, вс
вс2501:00+25ююв22390 0.0 101415
04:00+24ююв22420 0.0 101311
07:00+28ююз35320 0.0 1014144
10:00+35ююз64140 0.0 10141212
13:00+38ю3290 0.0 10122246
16:00+39ююв2290 0.0 10112634
19:00+36вюв57120 0.0 1010101
22:00+29юв36290 0.0 1013115
26 июля, пн
пн2601:00+26ю12340 0.0 101311
04:00+26ююв22350 0.0 101211
07:00+29ююз38230 0.0 1013236
10:00+36ю54150 0.0 1013983
13:00+38юв33110 0.0 10122379
16:00+40в55110 0.0 10102715
19:00+32в811250 0.0 1012533
22:00+27в37540 0.0 1014268
27 июля, вт
вт2701:00+25св12610 0.0 101311
04:00+24всв11600 0.0 101311
07:00+26в11420 0.0 101475
10:00+33вюв44230 0.0 1014854
13:00+37в43170 0.0 10132215
16:00+37всв85160 0.0 10112535
19:00+31всв79300 0.0 1013466
22:00+26всв37580 0.0 1014234
28 июля, ср
ср2801:00+25св22580 0.0 101425
04:00+23всв22540 0.0 101413
07:00+24всв23510 0.0 1015146
10:00+31всв44250 0.0 1015718
13:00+36всв43130 0.0 10141653
16:00+36всв85150 0.0 10121855
19:00+29всв68310 0.0 1014366
22:00+24всв34670 0.0 101686
29 июля, чт
чт2901:00+22св12780 0.0 101511
04:00+22св22810 0.0 101411
07:00+24юв11670 0.0 101596
10:00+32вюв34250 0.0 1015715
13:00+37в34150 0.0 10141896
16:00+39в43120 0.0 10122436
19:00+32всв68280 0.0 1014261
22:00+27юв22450 0.0 101525